{"data":{"norad_id":66774,"epoch":"2026-05-25T03:36:55.759104Z","epoch_age_seconds":62330,"freshness":"FRESH","line1":"1 66774U 25276DN  26145.15064536  .00005255  00000+0  24145-3 0  9995","line2":"2 66774  97.4208 219.4173 0000435  40.3229 319.8039 15.20802730 26943","mean_motion":15.2080273,"eccentricity":4.35e-5,"inclination_deg":97.4208,"raan_deg":219.4173,"arg_perigee_deg":40.3229,"mean_anomaly_deg":319.8039,"bstar":0.00024145,"rev_number":2694,"period_min":94.686836865423,"perigee_km":503.11865884187,"apogee_km":503.71735412743,"semimajor_km":6881.5550064846,"source":"CELESTRAK","updated_at":"2026-05-25T13:38:06.478182Z"}}